Probability
0 0 0 0 0 0 0 0 0 0 0 0 0 0 0 0 0 0 0 0 0 0 0 0 0 0 0 0 0 0 0 0 0 0 0 1 0 0
0 0 0 0 0 0 0 0 0 0 0 0 0 0 0 0 0 0 0 0 0 0 0 0 0 0 0 0 0 0 0 0 0 0 0 1 0 0
0 0 0 0 0 0 0 0 0 0 0 0 0 0 0 0 0 0 0 0 0 0 0 0 0 0 0 0 0 0 0 0 0 0 0 0 0 0
0 0 0 0 0 0 0 0 0 0 0 0 0 0 0 0 0 0 0 0 0 0 0 0 0 0 0 0 0 0 0 0 0 0 0 0 0 0
0 0 0 0 0 0 0 0 0 0 0 0 0 0 0 0 0 0 0 0 0 0 0 0 0 0 0 0 0 0 0 0 0 0 0 0 0 0
0 0 0 0 0 0 0 0 0 0 0 0 0 0 0 0 0 0 0 0 0 0 0 0 0 0 0 0 0 0 0 0 0 0 0 0 0 0
0 0 0 0 0 0 0 0 0 0 0 0 0 0 0 0 0 0 0 0 0 0 0 0 0 0 0 0 0 0 0 0 0 0 0 0 0 0
0 0 0 0 0 0 0 0 0 0 0 0 0 0 0 0 0 0 0 0 0 0 0 0 0 0 0 0 0 0 0 0 0 0 0 0 0 0
0 0 0 0 0 0 0 0 0 0 0 0 0 0 0 0 0 0 0 0 0 0 0 0 0 0 0 0 0 0 0 0 0 0 0 0 0 0
0 0 0 0 0 0 0 0 0 0 0 0 0 0 0 0 0 0 0 0 0 0 0 0 0 0 0 0 0 0 0 0 0 0 0 0 0 0
0 0 0 0 0 0 0 0 0 0 0 0 0 0 0 0 0 0 0 0 0 0 0 0 0 0 0 0 0 0 0 0 0 0 0 0 0 0
0 0 0 0 0 0 0 0 0 0 0 0 0 0 0 0 0 0 0 0 0 0 0 0 0 0 0 0 0 0 0 0 0 0 0 0 0 0
0 0 0 0 0 0 0 0 0 0 0 0 0 0 0 0 0 0 0 0 0 0 0 0 0 0 0 0 0 0 0 0 0 0 0 0 0 0
0 0 0 0 0 0 0 0 0 0 0 0 0 0 0 0 0 0 0 0 0 0 0 0 0 0 0 0 0 0 0 0 0 0 0 0 0 0
0 0 0 0 0 0 0 0 0 0 0 0 0 0 0 0 0 0 0 0 0 0 0 0 0 0 0 0 0 0 0 0 0 0 0 0 0 0
0 0 0 0 0 0 0 0 0 0 0 0 0 0 0 0 0 0 0 0 0 0 0 0 0 0 0 0 0 0 0 0 0 0 0 0 0 0
0 0 0 0 0 0 0 0 0 0 0 0 0 0 0 0 0 0 0 0 0 0 0 0 0 0 0 0 0 0 0 0 0 0 0 0 0 0
0 0 0 0 0 0 0 0 0 0 0 0 0 0 0 0 0 0 0 0 0 0 0 0 0 0 0 0 0 0 0 0 0 0 0 0 0 0
0 0 0 0 0 0 0 0 0 0 0 0 0 0 0 0 0 0 0 0 0 0 0 0 0 0 0 0 0 0 0 0 0 0 0 0 0 0
0 0 0 0 0 0 0 0 0 0 0 0 0 0 0 0 0 0 0 0 0 0 0 0 0 0 0 0 0 0 0 0 0 0 0 0 0 0
0 0 0 0 0 0 0 0 0 0 0 0 0 0 0 0 0 0 0 0 0 0 0 0 0 0 0 0 0 0 0 0 0 0 0 0 0 0
0 0 0 0 0 0 0 0 0 0 0 0 0 0 0 0 0 0 0 0 0 0 0 0 0 0 0 0 0 0 0 0 0 0 0 0 0 0
0 0 0 0 0 0 0 0 0 0 0 0 0 0 0 0 0 0 0 0 0 0 0 0 0 0 0 0 0 0 0 0 0 0 0 0 0 0
Wind_Speed
3 2 2 2 2 2 1 2 3 3 4 3 2 2 2 2 2 2 1 2 3 3 3 3 4 4 4 4 4 5 6 6 6 7 7 7 8 8
2 2 2 2 2 2 2 2 2 3 4 2 2 2 2 2 2 2 2 2 3 3 3 3 4 5 5 5 5 6 6 6 6 7 7 8 9 8
2 2 3 2 2 1 2 2 2 2 4 3 2 1 2 3 2 2 2 2 2 3 4 4 4 4 5 5 5 6 6 6 7 7 7 7 7 8
3 3 3 2 2 2 2 2 3 2 3 5 3 2 3 3 2 2 2 2 2 4 5 5 5 5 5 5 5 6 6 6 7 7 7 6 6 7
3 4 4 3 3 3 3 3 3 3 3 4 4 2 2 2 2 2 2 2 3 3 5 5 5 5 6 5 5 6 6 7 7 7 6 6 6 7
4 4 4 4 4 4 3 4 3 3 3 3 3 3 2 2 2 2 3 2 2 3 4 4 5 6 7 6 6 6 6 6 7 6 6 6 6 7
3 3 4 5 6 5 4 3 3 3 3 3 3 3 3 2 3 2 3 2 3 2 2 3 3 3 4 5 6 6 7 6 6 6 6 6 7 7
3 3 4 4 5 5 6 5 5 4 4 4 4 4 4 4 2 2 2 3 3 1 2 3 2 4 4 3 6 7 7 6 6 6 6 6 7 7
4 3 3 3 4 3 4 5 5 6 6 5 5 5 5 4 3 4 4 4 4 3 3 5 3 4 4 5 8 8 7 7 7 7 7 7 7 7
3 4 4 4 4 4 3 4 4 5 6 4 5 5 5 4 4 4 4 4 4 2 2 4 4 4 4 4 7 7 7 7 7 7 7 7 7 7
4 4 4 5 6 6 4 4 5 4 5 5 6 5 5 5 3 2 2 2 4 3 1 2 3 4 4 4 4 6 6 7 7 7 8 8 7 7
3 4 5 6 7 6 5 5 5 5 3 3 3 3 3 3 4 4 4 4 3 3 2 2 2 2 4 3 2 2 3 5 7 8 8 8 7 4
3 3 4 7 8 8 6 4 5 4 3 3 3 2 2 2 3 3 3 4 4 4 2 1 2 2 3 5 4 3 2 3 3 5 7 8 8 5
4 4 4 7 8 8 6 5 5 3 2 2 2 3 3 3 3 3 3 3 4 5 4 3 3 3 3 4 5 3 2 3 3 4 3 6 7 7
4 7 8 8 7 5 5 5 3 2 2 3 3 3 3 2 1 1 1 1 2 3 3 4 4 4 4 5 5 4 4 4 3 3 3 3 3 3
4 4 6 6 5 4 3 3 2 2 3 3 3 2 1 1 2 2 2 1 2 3 3 4 4 4 5 5 5 5 4 4 3 3 3 3 3 3
3 2 2 2 2 2 2 2 2 1 2 2 2 2 2 2 2 2 2 2 3 3 3 2 2 3 4 5 5 6 5 4 4 4 3 4 4 4
2 2 3 3 3 3 3 2 2 2 2 2 2 3 3 3 3 2 2 3 4 4 3 2 1 1 2 3 7 6 4 4 4 3 3 4 5 4
2 3 3 3 3 3 3 3 3 3 2 3 3 3 3 3 3 3 3 4 4 4 4 3 3 3 3 5 4 6 5 4 3 3 3 4 6 5
2 3 4 3 3 4 4 3 3 3 3 3 3 4 4 4 4 4 4 5 4 4 4 3 4 5 5 5 4 4 7 5 4 4 4 4 4 6
3 3 3 4 4 4 4 4 4 4 4 3 4 4 4 4 4 4 4 5 5 4 5 5 5 4 2 1 3 4 4 7 7 5 4 3 3 3
4 4 4 4 4 4 4 3 3 3 4 4 4 4 4 4 5 5 5 4 5 5 5 4 2 2 2 4 6 5 5 4 6 8 8 7 4 4
4 4 4 4 4 4 4 4 4 4 4 4 4 4 4 4 4 4 5 5 4 5 4 4 3 2 3 4 5 5 5 5 3 3 4 7 9 11
Wind_Direction
247 251 259 253 247 245 241 224 217 245 255 239 240 248 275 267 255 224 228 275 283 285 294 304 307 309 312 312 301 291 284 284 287 287 285 282 281 276
262 251 257 263 256 253 251 250 237 235 253 250 250 263 277 275 266 241 234 267 271 273 279 292 300 305 310 310 310 307 300 292 291 291 288 285 280 280
264 252 257 268 261 261 263 259 252 240 252 270 273 271 265 262 252 250 247 237 249 270 276 283 288 296 300 301 303 302 303 305 304 300 295 289 291 288
254 256 259 260 256 255 256 264 263 256 246 262 271 266 270 259 244 250 265 265 251 264 271 276 279 284 290 295 300 301 301 304 304 304 300 295 293 293
249 249 252 245 256 257 253 253 258 265 256 254 267 270 275 255 253 268 259 260 264 265 264 266 273 283 286 289 292 294 298 300 299 298 299 302 301 298
256 252 249 242 245 248 250 248 250 256 257 252 258 263 267 253 235 252 274 266 278 286 268 269 278 281 280 279 281 285 290 294 297 299 302 303 303 300
262 257 253 254 256 255 253 244 239 245 250 251 256 263 261 251 244 249 263 285 283 269 263 262 267 263 267 273 273 272 278 284 289 296 302 300 299 298
264 271 266 257 260 261 260 258 250 243 241 243 251 255 258 255 252 247 261 282 275 249 268 274 262 266 269 260 267 271 274 279 285 292 297 304 303 298
258 266 275 275 263 257 260 262 260 258 249 244 246 251 251 242 235 243 248 259 270 275 285 281 276 268 270 275 276 270 269 275 284 290 296 299 298 298
262 259 261 267 265 261 255 260 258 251 249 248 245 248 248 237 230 238 247 269 280 265 247 271 285 280 289 281 276 270 270 276 283 289 293 294 296 296
275 269 264 263 267 271 261 252 259 259 258 252 258 258 253 251 244 230 226 240 262 257 224 253 278 291 290 279 278 283 283 283 284 286 291 291 293 296
280 278 273 273 276 275 261 241 243 251 250 254 260 267 254 242 241 227 220 225 243 255 218 236 264 304 300 283 282 292 285 284 288 288 287 286 288 283
274 275 274 278 280 278 276 255 253 258 242 238 241 247 244 233 233 230 224 220 229 243 221 226 250 267 269 286 290 279 270 276 277 277 280 282 282 276
269 271 271 275 279 279 278 270 271 272 237 229 235 241 242 242 248 245 242 246 252 249 229 223 238 240 255 273 282 286 273 270 272 271 267 276 280 277
272 273 281 282 286 281 276 278 273 235 216 227 237 243 242 244 253 261 260 265 277 269 249 238 232 236 240 252 270 274 287 281 258 257 266 267 262 263
287 285 289 288 291 293 282 273 255 234 226 230 241 248 243 236 237 236 239 253 274 279 270 251 236 231 245 253 255 265 260 265 267 264 271 271 266 252
295 295 295 291 280 278 277 269 250 239 240 237 234 242 243 242 244 236 227 224 238 258 275 278 255 246 249 248 251 251 255 260 258 260 262 271 263 247
296 265 265 263 262 258 259 262 256 250 248 248 239 233 236 238 245 244 230 225 238 247 252 252 251 304 305 276 241 244 247 253 259 253 248 258 268 260
276 257 257 255 257 255 252 249 252 254 248 244 242 237 234 233 234 238 237 239 243 246 247 235 218 216 256 279 272 237 243 257 260 258 244 243 259 265
263 262 262 260 257 255 252 252 254 254 245 244 243 237 231 230 231 235 235 235 240 247 252 239 224 221 229 247 263 268 249 243 241 250 262 269 269 278
263 265 266 263 260 256 254 250 246 247 247 244 243 239 230 227 235 236 237 237 236 236 243 249 247 244 249 253 269 275 267 254 252 245 247 266 279 279
260 259 261 262 259 256 256 251 247 247 245 243 245 243 234 228 232 236 237 236 240 240 247 257 255 236 218 230 253 266 280 286 279 273 265 249 229 229
257 259 258 258 258 254 251 248 245 247 245 244 245 243 238 236 236 236 237 239 241 246 248 252 252 240 240 236 246 259 269 282 289 295 286 281 267 263